TimeEST,TemperatureF,Dew PointF,Humidity,Sea Level PressureIn,VisibilityMPH,Wind Direction,Wind SpeedMPH,Gust SpeedMPH,PrecipitationIn,Events,Conditions,WindDirDegrees,DateUTC
12:15 AM,15.8,-3.8,42,30.00,10.0,South,6.9,-,N/A,,Clear,180,2014-01-25 05:15:00
12:35 AM,17.6,-4.4,38,29.98,10.0,South,10.4,17.3,N/A,,Clear,190,2014-01-25 05:35:00
12:55 AM,18.0,-3.8,38,29.97,10.0,SSW,15.0,-,N/A,,Clear,200,2014-01-25 05:55:00
1:15 AM,18.5,-4.0,37,29.96,10.0,South,15.0,-,N/A,,Clear,190,2014-01-25 06:15:00
1:35 AM,19.4,-4.2,35,29.95,10.0,SSW,15.0,-,N/A,,Clear,200,2014-01-25 06:35:00
1:55 AM,19.9,-4.0,35,29.93,10.0,SSW,15.0,24.2,N/A,,Clear,210,2014-01-25 06:55:00
2:15 AM,20.3,-4.4,34,29.92,10.0,SSW,13.8,23.0,N/A,,Clear,210,2014-01-25 07:15:00
2:35 AM,20.1,-4.0,35,29.90,10.0,SSW,12.7,21.9,N/A,,Clear,210,2014-01-25 07:35:00
2:55 AM,19.6,-3.8,36,29.88,10.0,SSW,11.5,-,N/A,,Clear,200,2014-01-25 07:55:00
3:15 AM,19.4,-3.8,36,29.87,10.0,SSW,10.4,-,N/A,,Clear,200,2014-01-25 08:15:00
3:35 AM,19.9,-4.2,35,29.85,10.0,SSW,11.5,-,N/A,,Clear,200,2014-01-25 08:35:00
3:55 AM,20.1,-3.8,35,29.84,10.0,SSW,12.7,16.1,N/A,,Clear,200,2014-01-25 08:55:00
4:15 AM,20.3,-3.8,35,29.81,10.0,SSW,12.7,19.6,N/A,,Clear,200,2014-01-25 09:15:00
4:35 AM,20.5,-3.3,35,29.80,10.0,South,12.7,-,N/A,,Clear,190,2014-01-25 09:35:00
4:55 AM,21.2,-2.9,35,29.79,10.0,South,16.1,-,N/A,,Clear,190,2014-01-25 09:55:00
5:15 AM,21.7,-3.1,34,29.78,10.0,South,13.8,-,N/A,,Clear,190,2014-01-25 10:15:00
5:35 AM,22.1,-2.9,33,29.76,10.0,SSW,13.8,-,N/A,,Clear,200,2014-01-25 10:35:00
5:55 AM,22.5,-2.9,33,29.76,10.0,SSW,15.0,18.4,N/A,,Clear,200,2014-01-25 10:55:00
6:15 AM,23.0,-3.3,32,29.74,10.0,SSW,13.8,19.6,N/A,,Scattered Clouds,200,2014-01-25 11:15:00
6:35 AM,23.2,-2.2,33,29.74,10.0,SSW,13.8,18.4,N/A,,Mostly Cloudy,200,2014-01-25 11:35:00
6:55 AM,23.7,-2.4,32,29.73,10.0,SSW,15.0,-,N/A,,Overcast,200,2014-01-25 11:55:00
7:15 AM,23.9,-1.8,33,29.71,10.0,South,11.5,17.3,N/A,,Overcast,190,2014-01-25 12:15:00
7:35 AM,24.6,-2.2,31,29.70,10.0,South,12.7,19.6,N/A,,Overcast,190,2014-01-25 12:35:00
7:55 AM,24.8,-1.3,32,29.68,10.0,South,12.7,-,N/A,,Overcast,190,2014-01-25 12:55:00
8:15 AM,25.5,-2.0,30,29.66,10.0,SSW,13.8,20.7,N/A,,Scattered Clouds,210,2014-01-25 13:15:00
8:35 AM,25.9,-1.7,30,29.65,10.0,SSW,12.7,20.7,N/A,,Clear,210,2014-01-25 13:35:00
8:55 AM,26.2,-1.3,30,29.64,10.0,SW,15.0,19.6,N/A,,Clear,220,2014-01-25 13:55:00
9:15 AM,26.6,-1.3,30,29.64,10.0,SW,16.1,23.0,N/A,,Clear,220,2014-01-25 14:15:00
9:35 AM,27.0,-0.2,31,29.64,10.0,SW,17.3,25.3,N/A,,Clear,220,2014-01-25 14:35:00
9:55 AM,27.3,0.3,31,29.63,10.0,SW,11.5,-,N/A,,Clear,220,2014-01-25 14:55:00
10:15 AM,27.9,2.1,33,29.62,10.0,SW,11.5,17.3,N/A,,Clear,220,2014-01-25 15:15:00
10:35 AM,28.9,2.5,32,29.61,10.0,SW,11.5,20.7,N/A,,Clear,220,2014-01-25 15:35:00
10:55 AM,29.5,6.1,37,29.59,10.0,SW,11.5,19.6,N/A,,Clear,230,2014-01-25 15:55:00
11:15 AM,29.1,7.5,40,29.59,10.0,SSW,16.1,21.9,N/A,,Scattered Clouds,210,2014-01-25 16:15:00
11:35 AM,30.2,10.4,44,29.58,10.0,SW,19.6,31.1,N/A,,Overcast,220,2014-01-25 16:35:00
11:55 AM,30.0,12.7,49,29.55,10.0,SW,21.9,28.8,N/A,,Overcast,230,2014-01-25 16:55:00
12:15 PM,29.8,14.9,54,29.54,10.0,SW,18.4,27.6,N/A,,Scattered Clouds,220,2014-01-25 17:15:00
12:35 PM,30.2,16.5,57,29.53,10.0,SW,18.4,24.2,N/A,,Mostly Cloudy,220,2014-01-25 17:35:00
12:55 PM,29.8,16.5,58,29.51,10.0,SSW,18.4,23.0,N/A,,Overcast,210,2014-01-25 17:55:00
1:15 PM,30.2,17.1,58,29.49,10.0,SSW,13.8,-,N/A,,Overcast,210,2014-01-25 18:15:00
1:35 PM,30.9,17.6,58,29.49,10.0,SW,17.3,-,N/A,,Overcast,230,2014-01-25 18:35:00
1:55 PM,31.1,18.0,58,29.47,10.0,SW,12.7,-,N/A,,Overcast,220,2014-01-25 18:55:00
2:15 PM,31.8,17.6,56,29.45,10.0,SW,15.0,21.9,N/A,,Overcast,220,2014-01-25 19:15:00
2:35 PM,32.0,18.0,56,29.45,10.0,SW,15.0,21.9,N/A,,Overcast,230,2014-01-25 19:35:00
2:55 PM,32.0,18.0,56,29.46,10.0,SW,12.7,25.3,N/A,,Overcast,230,2014-01-25 19:55:00
3:15 PM,32.0,18.1,57,29.47,10.0,SW,19.6,28.8,N/A,,Overcast,230,2014-01-25 20:15:00
3:35 PM,31.6,19.0,60,29.48,10.0,SW,17.3,25.3,N/A,,Overcast,230,2014-01-25 20:35:00
3:55 PM,31.5,19.4,61,29.48,10.0,SW,15.0,19.6,N/A,,Overcast,230,2014-01-25 20:55:00
4:15 PM,31.1,18.5,60,29.48,10.0,WSW,9.2,-,N/A,,Overcast,240,2014-01-25 21:15:00
4:35 PM,30.7,16.7,56,29.48,10.0,WSW,15.0,19.6,N/A,,Scattered Clouds,240,2014-01-25 21:35:00
4:55 PM,30.9,16.2,54,29.49,10.0,WSW,13.8,24.2,N/A,,Mostly Cloudy,240,2014-01-25 21:55:00
5:15 PM,30.4,16.5,56,29.49,10.0,WSW,15.0,20.7,N/A,,Mostly Cloudy,240,2014-01-25 22:15:00
5:35 PM,30.7,16.3,55,29.51,10.0,WSW,19.6,24.2,N/A,,Overcast,240,2014-01-25 22:35:00
5:55 PM,30.2,14.9,53,29.52,10.0,WSW,10.4,21.9,N/A,,Mostly Cloudy,250,2014-01-25 22:55:00
6:15 PM,29.8,14.9,54,29.52,10.0,WSW,8.1,18.4,N/A,,Scattered Clouds,240,2014-01-25 23:15:00
6:35 PM,29.7,15.4,55,29.53,10.0,WSW,8.1,-,N/A,,Overcast,240,2014-01-25 23:35:00
6:55 PM,29.3,17.1,60,29.53,10.0,SW,10.4,-,N/A,,Overcast,220,2014-01-25 23:55:00
7:15 PM,28.4,17.6,64,29.53,10.0,SW,10.4,-,N/A,,Mostly Cloudy,220,2014-01-26 00:15:00
7:35 PM,27.5,17.1,65,29.54,10.0,SW,8.1,-,N/A,,Mostly Cloudy,220,2014-01-26 00:35:00
7:55 PM,28.4,17.4,63,29.52,10.0,SW,16.1,-,N/A,,Overcast,220,2014-01-26 00:55:00
8:15 PM,29.1,16.9,60,29.52,10.0,SW,18.4,25.3,N/A,,Scattered Clouds,230,2014-01-26 01:15:00
8:35 PM,28.9,16.7,60,29.53,10.0,WSW,10.4,-,N/A,,Scattered Clouds,240,2014-01-26 01:35:00
8:55 PM,30.6,17.2,58,29.55,7.0,West,15.0,21.9,N/A,Snow,Light Snow,280,2014-01-26 01:55:00
9:15 PM,28.2,23.0,81,29.59,1.0,West,13.8,24.2,N/A,Snow,Light Snow,270,2014-01-26 02:15:00
10:15 PM,26.1,6.4,43,29.63,10.0,West,13.8,25.3,N/A,,Clear,270,2014-01-26 03:15:00
10:35 PM,25.5,6.8,45,29.64,10.0,West,23.0,33.4,N/A,,Clear,270,2014-01-26 03:35:00
10:36 PM,24.8,6.8,46,29.64,10.0,West,18.4,33.4,N/A,,Clear,270,2014-01-26 03:36:00
10:55 PM,25.0,4.3,41,29.65,10.0,West,17.3,31.1,N/A,,Clear,270,2014-01-26 03:55:00
11:15 PM,24.6,3.9,41,29.66,10.0,West,17.3,26.5,N/A,,Clear,270,2014-01-26 04:15:00
11:35 PM,24.3,1.8,38,29.69,10.0,West,13.8,29.9,N/A,,Clear,270,2014-01-26 04:35:00
11:55 PM,23.2,-0.2,36,29.71,10.0,WNW,12.7,18.4,N/A,,Clear,290,2014-01-26 04:55:00